| time (UTC) | temp F | wind direction | speed MPH | gust MPH | rain 1hr in | rain 24hr in | rain mn in | humidity % | barometer mb |
| 20260504185003 | 73 | 223 | 8.0 | 19.0 | 0.00 | 0.00 | 0.00 | 36 | 1008.9 |
| 20260504184503 | 73 | 224 | 8.0 | 19.0 | 0.00 | 0.00 | 0.00 | 33 | 1008.9 |
| 20260504184003 | 73 | 220 | 8.0 | 21.0 | 0.00 | 0.00 | 0.00 | 34 | 1008.9 |
| 20260504183504 | 73 | 211 | 7.0 | 21.0 | 0.00 | 0.00 | 0.00 | 35 | 1009.1 |
| 20260504183003 | 73 | 202 | 6.0 | 15.0 | 0.00 | 0.00 | 0.00 | 35 | 1008.9 |
| 20260504182503 | 73 | 214 | 6.0 | 14.0 | 0.00 | 0.00 | 0.00 | 36 | 1009.0 |
| 20260504182025 | 73 | 210 | 6.0 | 14.0 | 0.00 | 0.00 | 0.00 | 36 | 1009.0 |
| 20260504181503 | 72 | 206 | 7.0 | 18.0 | 0.00 | 0.00 | 0.00 | 38 | 1009.1 |
| 20260504181004 | 72 | 211 | 8.0 | 18.0 | 0.00 | 0.00 | 0.00 | 36 | 1009.1 |
| 20260504180503 | 72 | 203 | 8.0 | 21.0 | 0.00 | 0.00 | 0.00 | 34 | 1009.5 |
| 20260504180003 | 72 | 194 | 9.0 | 22.0 | 0.00 | 0.00 | 0.00 | 36 | 1009.3 |
| 20260504175504 | 72 | 206 | 8.0 | 22.0 | 0.00 | 0.00 | 0.00 | 38 | 1009.5 |
| 20260504175004 | 71 | 216 | 7.0 | 21.0 | 0.00 | 0.00 | 0.00 | 36 | 1009.2 |
| 20260504174524 | 71 | 209 | 8.0 | 21.0 | 0.00 | 0.00 | 0.00 | 36 | 1009.4 |
| 20260504174025 | 71 | 213 | 10.0 | 22.0 | 0.00 | 0.00 | 0.00 | 36 | 1009.6 |
| 20260504173503 | 71 | 222 | 10.0 | 22.0 | 0.00 | 0.00 | 0.00 | 35 | 1009.7 |
| 20260504173004 | 71 | 234 | 9.0 | 19.0 | 0.00 | 0.00 | 0.00 | 36 | 1009.6 |
| 20260504172504 | 71 | 244 | 9.0 | 17.0 | 0.00 | 0.00 | 0.00 | 35 | 1009.7 |
| 20260504172003 | 71 | 238 | 9.0 | 17.0 | 0.00 | 0.00 | 0.00 | 32 | 1009.9 |
| 20260504171525 | 71 | 221 | 10.0 | 25.0 | 0.00 | 0.00 | 0.00 | 34 | 1009.7 |
| 20260504171004 | 71 | 221 | 9.0 | 25.0 | 0.00 | 0.00 | 0.00 | 34 | 1010.1 |
| 20260504170503 | 71 | 242 | 7.0 | 17.0 | 0.00 | 0.00 | 0.00 | 37 | 1010.0 |
| 20260504151024 | 67 | 228 | 7.0 | 17.0 | 0.00 | 0.00 | 0.00 | 37 | 1011.4 |
| 20260504150503 | 67 | 209 | 8.0 | 21.0 | 0.00 | 0.00 | 0.00 | 38 | 1011.4 |
| 20260504141003 | 64 | 222 | 10.0 | 22.0 | 0.00 | 0.00 | 0.00 | 38 | 1012.0 |
| 20260504140503 | 64 | 227 | 10.0 | 21.0 | 0.00 | 0.00 | 0.00 | 40 | 1011.8 |
| 20260504130525 | 60 | 241 | 6.0 | 14.0 | 0.00 | 0.00 | 0.00 | 43 | 1012.3 |
| 20260504110503 | 45 | 154 | 1.0 | 4.0 | 0.00 | 0.00 | 0.00 | 64 | 1012.6 |
| 20260504100503 | 43 | 161 | 1.0 | 3.0 | 0.00 | 0.00 | 0.00 | 61 | 1012.4 |
| 20260504081524 | 50 | 245 | 3.0 | 13.0 | 0.00 | 0.00 | 0.00 | 50 | 1012.1 |
| 20260504081024 | 50 | 243 | 4.0 | 13.0 | 0.00 | 0.00 | 0.00 | 50 | 1012.1 |
| 20260504080503 | 50 | 240 | 4.0 | 8.0 | 0.00 | 0.00 | 0.00 | 51 | 1012.1 |
| 20260504050503 | 48 | 236 | 4.0 | 13.0 | 0.00 | 0.00 | 0.00 | 54 | 1011.6 |
| 20260504050004 | 47 | 238 | 4.0 | 8.0 | 0.00 | 0.00 | 0.00 | 55 | 1011.7 |
| 20260504045503 | 46 | 234 | 3.0 | 7.0 | 0.00 | 0.00 | 0.00 | 57 | 1011.5 |
| 20260504045003 | 45 | 232 | 3.0 | 6.0 | 0.00 | 0.00 | 0.00 | 58 | 1011.5 |
| 20260504044504 | 45 | 231 | 2.0 | 4.0 | 0.00 | 0.00 | 0.00 | 59 | 1011.4 |
| 20260504044003 | 45 | 229 | 2.0 | 4.0 | 0.00 | 0.00 | 0.00 | 59 | 1011.5 |
| 20260504043504 | 44 | 226 | 2.0 | 4.0 | 0.00 | 0.00 | 0.00 | 60 | 1011.4 |
| 20260504043004 | 44 | 225 | 2.0 | 4.0 | 0.00 | 0.00 | 0.00 | 61 | 1011.3 |
| 20260504042504 | 44 | 230 | 2.0 | 4.0 | 0.00 | 0.00 | 0.00 | 61 | 1011.4 |
| 20260504042003 | 43 | 235 | 2.0 | 3.0 | 0.00 | 0.00 | 0.00 | 61 | 1011.2 |
| 20260504041503 | 43 | 235 | 2.0 | 4.0 | 0.00 | 0.00 | 0.00 | 62 | 1011.1 |
| 20260504041003 | 43 | 235 | 1.0 | 4.0 | 0.00 | 0.00 | 0.00 | 62 | 1011.3 |
| 20260504040503 | 42 | 233 | 1.0 | 3.0 | 0.00 | 0.00 | 0.00 | 61 | 1011.0 |
| 20260504040003 | 42 | 234 | 1.0 | 3.0 | 0.00 | 0.00 | 0.00 | 61 | 1011.4 |
| 20260504035503 | 42 | 235 | 1.0 | 2.0 | 0.00 | 0.00 | 0.00 | 61 | 1011.1 |
| 20260504035003 | 42 | 235 | 1.0 | 2.0 | 0.00 | 0.00 | 0.00 | 61 | 1011.2 |
| 20260504034504 | 42 | 235 | 0.0 | 2.0 | 0.00 | 0.00 | 0.00 | 60 | 1011.1 |
| 20260504034024 | 43 | 235 | 0.0 | 2.0 | 0.00 | 0.00 | 0.00 | 60 | 1011.1 |
| 20260504033503 | 43 | 235 | 0.0 | 2.0 | 0.00 | 0.00 | 0.00 | 59 | 1011.0 |
| 20260504033025 | 43 | 236 | 0.0 | 1.0 | 0.00 | 0.00 | 0.00 | 59 | 1011.1 |
| 20260504032504 | 43 | 236 | 0.0 | 1.0 | 0.00 | 0.00 | 0.00 | 60 | 1011.2 |
| 20260504032003 | 43 | 236 | 0.0 | 1.0 | 0.00 | 0.00 | 0.00 | 59 | 1011.2 |
| 20260504031503 | 43 | 236 | 0.0 | 2.0 | 0.00 | 0.00 | 0.00 | 59 | 1011.1 |
| 20260504031004 | 43 | 236 | 0.0 | 2.0 | 0.00 | 0.00 | 0.00 | 59 | 1011.1 |
| 20260504030524 | 43 | 0 | 0.0 | 0.0 | 0.00 | 0.00 | 0.00 | 58 | 1011.1 |
| 20260504030003 | 44 | 0 | 0.0 | 0.0 | 0.00 | 0.00 | 0.00 | 58 | 1011.4 |
| 20260504025504 | 44 | 0 | 0.0 | 0.0 | 0.00 | 0.00 | 0.00 | 57 | 1011.2 |
| 20260504025024 | 44 | 0 | 0.0 | 0.0 | 0.00 | 0.00 | 0.00 | 56 | 1011.2 |
| 20260504024503 | 44 | 236 | 0.0 | 1.0 | 0.00 | 0.00 | 0.00 | 56 | 1010.9 |
| 20260504024003 | 44 | 238 | 0.0 | 1.0 | 0.00 | 0.00 | 0.00 | 55 | 1011.0 |
| 20260504023503 | 45 | 239 | 0.0 | 1.0 | 0.00 | 0.00 | 0.00 | 53 | 1011.2 |
| 20260504023003 | 45 | 0 | 0.0 | 0.0 | 0.00 | 0.00 | 0.00 | 53 | 1011.2 |
| 20260504022524 | 45 | 0 | 0.0 | 0.0 | 0.00 | 0.00 | 0.00 | 52 | 1011.2 |
| 20260504022024 | 46 | 0 | 0.0 | 0.0 | 0.00 | 0.00 | 0.00 | 51 | 1011.3 |
| 20260504021503 | 46 | 0 | 0.0 | 0.0 | 0.00 | 0.00 | 0.00 | 50 | 1011.2 |
| 20260504021003 | 46 | 0 | 0.0 | 0.0 | 0.00 | 0.00 | 0.00 | 50 | 1011.1 |
| 20260504020524 | 47 | 0 | 0.0 | 0.0 | 0.00 | 0.00 | 0.00 | 49 | 1011.1 |
| 20260504020004 | 47 | 0 | 0.0 | 0.0 | 0.00 | 0.00 | 0.00 | 48 | 1011.2 |
| 20260504015504 | 48 | 0 | 0.0 | 0.0 | 0.00 | 0.00 | 0.00 | 47 | 1011.1 |
| 20260504015004 | 48 | 0 | 0.0 | 0.0 | 0.00 | 0.00 | 0.00 | 46 | 1011.0 |
| 20260504014504 | 49 | 0 | 0.0 | 0.0 | 0.00 | 0.00 | 0.00 | 46 | 1010.9 |
| 20260504014003 | 49 | 0 | 0.0 | 0.0 | 0.00 | 0.00 | 0.00 | 45 | 1011.1 |
| 20260504013503 | 50 | 0 | 0.0 | 0.0 | 0.00 | 0.00 | 0.00 | 44 | 1011.0 |
| 20260504013004 | 51 | 0 | 0.0 | 0.0 | 0.00 | 0.00 | 0.00 | 43 | 1010.8 |
| 20260504012503 | 51 | 0 | 0.0 | 0.0 | 0.00 | 0.00 | 0.00 | 42 | 1010.9 |
| 20260504012024 | 52 | 0 | 0.0 | 0.0 | 0.00 | 0.00 | 0.00 | 42 | 1010.9 |
| 20260504011504 | 52 | 239 | 0.0 | 1.0 | 0.00 | 0.00 | 0.00 | 41 | 1010.8 |
| 20260504011003 | 53 | 239 | 0.0 | 1.0 | 0.00 | 0.00 | 0.00 | 40 | 1010.8 |
| 20260504010503 | 53 | 239 | 0.0 | 1.0 | 0.00 | 0.00 | 0.00 | 39 | 1010.5 |
| 20260504010004 | 54 | 238 | 0.0 | 1.0 | 0.00 | 0.00 | 0.00 | 39 | 1010.7 |
| 20260504005504 | 54 | 238 | 0.0 | 2.0 | 0.00 | 0.00 | 0.00 | 38 | 1010.6 |
| 20260504005003 | 55 | 241 | 1.0 | 2.0 | 0.00 | 0.00 | 0.00 | 38 | 1010.5 |
| 20260504004504 | 55 | 250 | 1.0 | 4.0 | 0.00 | 0.00 | 0.00 | 37 | 1010.4 |
| 20260504004024 | 56 | 258 | 1.0 | 4.0 | 0.00 | 0.00 | 0.00 | 36 | 1010.5 |
| 20260504003503 | 56 | 260 | 1.0 | 7.0 | 0.00 | 0.00 | 0.00 | 36 | 1010.3 |
| 20260504003004 | 56 | 257 | 2.0 | 7.0 | 0.00 | 0.00 | 0.00 | 35 | 1010.3 |
| 20260504002525 | 56 | 257 | 1.0 | 4.0 | 0.00 | 0.00 | 0.00 | 35 | 1010.3 |
| 20260504002003 | 57 | 286 | 1.0 | 3.0 | 0.00 | 0.00 | 0.00 | 34 | 1010.1 |
| 20260504001503 | 57 | 298 | 1.0 | 3.0 | 0.00 | 0.00 | 0.00 | 34 | 1009.9 |
| 20260504001003 | 58 | 275 | 2.0 | 7.0 | 0.00 | 0.00 | 0.00 | 34 | 1009.9 |
| 20260504000503 | 58 | 262 | 2.0 | 7.0 | 0.00 | 0.00 | 0.00 | 33 | 1010.0 |
| 20260504000025 | 58 | 260 | 2.0 | 8.0 | 0.00 | 0.00 | 0.00 | 33 | 1009.8 |
| 20260503235504 | 58 | 265 | 3.0 | 9.0 | 0.00 | 0.00 | 0.00 | 32 | 1009.8 |
| 20260503235003 | 59 | 268 | 4.0 | 11.0 | 0.00 | 0.00 | 0.00 | 32 | 1009.7 |
| 20260503234503 | 59 | 270 | 4.0 | 11.0 | 0.00 | 0.00 | 0.00 | 31 | 1009.6 |
| 20260503234004 | 59 | 272 | 3.0 | 7.0 | 0.00 | 0.00 | 0.00 | 31 | 1009.9 |
| 20260503233503 | 59 | 263 | 3.0 | 9.0 | 0.00 | 0.00 | 0.00 | 32 | 1009.8 |
| 20260503233003 | 59 | 261 | 4.0 | 10.0 | 0.00 | 0.00 | 0.00 | 30 | 1009.3 |
| 20260503232525 | 59 | 266 | 4.0 | 10.0 | 0.00 | 0.00 | 0.00 | 30 | 1009.3 |
| 20260503232003 | 59 | 283 | 3.0 | 8.0 | 0.00 | 0.00 | 0.00 | 31 | 1009.2 |
| 20260503231504 | 59 | 281 | 3.0 | 9.0 | 0.00 | 0.00 | 0.00 | 29 | 1009.1 |
| 20260503231004 | 60 | 277 | 3.0 | 9.0 | 0.00 | 0.00 | 0.00 | 30 | 1009.1 |
| 20260503230503 | 60 | 296 | 4.0 | 14.0 | 0.00 | 0.00 | 0.00 | 30 | 1009.3 |
| 20260503230004 | 60 | 295 | 6.0 | 15.0 | 0.00 | 0.00 | 0.00 | 29 | 1009.3 |
| 20260503225504 | 60 | 277 | 6.0 | 15.0 | 0.00 | 0.00 | 0.00 | 29 | 1009.4 |
| 20260503225004 | 61 | 275 | 6.0 | 16.0 | 0.00 | 0.00 | 0.00 | 28 | 1009.1 |
| 20260503224503 | 61 | 288 | 7.0 | 16.0 | 0.00 | 0.00 | 0.00 | 28 | 1009.3 |
| 20260503224004 | 61 | 293 | 6.0 | 16.0 | 0.00 | 0.00 | 0.00 | 28 | 1008.9 |
| 20260503223503 | 61 | 290 | 5.0 | 16.0 | 0.00 | 0.00 | 0.00 | 27 | 1009.1 |
| 20260503223003 | 61 | 273 | 6.0 | 21.0 | 0.00 | 0.00 | 0.00 | 27 | 1009.2 |
| 20260503222524 | 61 | 262 | 7.0 | 21.0 | 0.00 | 0.00 | 0.00 | 27 | 1009.0 |
| 20260503222004 | 61 | 272 | 7.0 | 16.0 | 0.00 | 0.00 | 0.00 | 27 | 1009.1 |
| 20260503221503 | 61 | 281 | 7.0 | 18.0 | 0.00 | 0.00 | 0.00 | 27 | 1009.4 |
| 20260503221004 | 61 | 281 | 6.0 | 18.0 | 0.00 | 0.00 | 0.00 | 28 | 1009.2 |
| 20260503220503 | 61 | 279 | 6.0 | 19.0 | 0.00 | 0.00 | 0.00 | 27 | 1009.1 |
| 20260503220003 | 61 | 269 | 8.0 | 19.0 | 0.00 | 0.00 | 0.00 | 28 | 1009.0 |
| 20260503215503 | 61 | 265 | 8.0 | 24.0 | 0.00 | 0.00 | 0.00 | 27 | 1009.1 |
| 20260503215024 | 61 | 265 | 8.0 | 24.0 | 0.00 | 0.00 | 0.00 | 27 | 1009.3 |
| 20260503214504 | 61 | 266 | 8.0 | 19.0 | 0.00 | 0.00 | 0.00 | 27 | 1009.2 |
| 20260503214004 | 61 | 278 | 6.0 | 17.0 | 0.00 | 0.00 | 0.00 | 28 | 1009.1 |
| 20260503213503 | 61 | 282 | 5.0 | 14.0 | 0.00 | 0.00 | 0.00 | 27 | 1009.2 |
| 20260503213004 | 61 | 277 | 6.0 | 16.0 | 0.00 | 0.00 | 0.00 | 27 | 1009.0 |
| 20260503212504 | 61 | 294 | 7.0 | 17.0 | 0.00 | 0.00 | 0.00 | 27 | 1009.3 |
| 20260503212004 | 61 | 281 | 6.0 | 17.0 | 0.00 | 0.00 | 0.00 | 28 | 1009.1 |
| 20260503211503 | 61 | 261 | 7.0 | 19.0 | 0.00 | 0.00 | 0.00 | 28 | 1009.0 |
| 20260503211024 | 61 | 259 | 9.0 | 22.0 | 0.00 | 0.00 | 0.00 | 29 | 1009.2 |
| 20260503210504 | 61 | 258 | 9.0 | 23.0 | 0.00 | 0.00 | 0.00 | 27 | 1009.0 |
| 20260503210003 | 61 | 254 | 9.0 | 23.0 | 0.00 | 0.00 | 0.00 | 27 | 1008.9 |
| 20260503205503 | 61 | 275 | 9.0 | 26.0 | 0.00 | 0.00 | 0.00 | 28 | 1009.0 |
| 20260503205003 | 60 | 281 | 8.0 | 26.0 | 0.00 | 0.00 | 0.00 | 28 | 1008.8 |
| 20260503204504 | 60 | 269 | 8.0 | 18.0 | 0.00 | 0.00 | 0.00 | 29 | 1009.2 |
| 20260503204025 | 60 | 267 | 8.0 | 18.0 | 0.00 | 0.00 | 0.00 | 28 | 1009.3 |
| 20260503203504 | 60 | 259 | 9.0 | 22.0 | 0.00 | 0.00 | 0.00 | 29 | 1009.3 |
| 20260503203003 | 60 | 261 | 10.0 | 26.0 | 0.00 | 0.00 | 0.00 | 30 | 1009.0 |
| 20260503202504 | 60 | 271 | 8.0 | 26.0 | 0.00 | 0.00 | 0.00 | 29 | 1009.3 |
| 20260503202003 | 60 | 277 | 5.0 | 19.0 | 0.00 | 0.00 | 0.00 | 29 | 1009.0 |
| 20260503201504 | 60 | 282 | 7.0 | 25.0 | 0.00 | 0.00 | 0.00 | 29 | 1009.2 |
| 20260503201003 | 59 | 270 | 8.0 | 25.0 | 0.00 | 0.00 | 0.00 | 29 | 1009.2 |
| 20260503200504 | 59 | 259 | 9.0 | 21.0 | 0.00 | 0.00 | 0.00 | 31 | 1009.4 |
| 20260503200004 | 59 | 266 | 10.0 | 19.0 | 0.00 | 0.00 | 0.00 | 30 | 1009.1 |
| 20260503195504 | 59 | 278 | 8.0 | 19.0 | 0.00 | 0.00 | 0.00 | 29 | 1009.4 |
| 20260503195003 | 59 | 293 | 7.0 | 18.0 | 0.00 | 0.00 | 0.00 | 29 | 1009.3 |
| 20260503194504 | 59 | 291 | 7.0 | 19.0 | 0.00 | 0.00 | 0.00 | 31 | 1009.4 |
| 20260503194003 | 59 | 267 | 7.0 | 19.0 | 0.00 | 0.00 | 0.00 | 30 | 1009.3 |
| 20260503193524 | 59 | 247 | 8.0 | 21.0 | 0.00 | 0.00 | 0.00 | 33 | 1009.5 |
| 20260503193003 | 59 | 260 | 8.0 | 25.0 | 0.00 | 0.00 | 0.00 | 31 | 1009.6 |
| 20260503192503 | 58 | 272 | 8.0 | 25.0 | 0.00 | 0.00 | 0.00 | 31 | 1009.5 |
| 20260503192004 | 58 | 262 | 7.0 | 18.0 | 0.00 | 0.00 | 0.00 | 32 | 1009.7 |
| 20260503191504 | 58 | 270 | 7.0 | 17.0 | 0.00 | 0.00 | 0.00 | 32 | 1009.7 |
| 20260503191003 | 58 | 303 | 8.0 | 21.0 | 0.00 | 0.00 | 0.00 | 31 | 1009.7 |
| 20260503190503 | 58 | 304 | 7.0 | 21.0 | 0.00 | 0.00 | 0.00 | 33 | 1009.9 |
| 20260503190004 | 58 | 276 | 7.0 | 33.0 | 0.00 | 0.00 | 0.00 | 31 | 1009.9 |
| 20260503185504 | 58 | 260 | 9.0 | 33.0 | 0.00 | 0.00 | 0.00 | 32 | 1010.0 |